Track FLOCK 2K 24 now! 10-day predictions FLOCK 2K 24 is classified as:
1 42857U 17042AJ 21112.53344667 .00014905 00000-0 26690-3 0 9990 2 42857 96.8533 330.8889 0005555 268.8279 91.2337 15.50034535211913